This is the latest recevied weather packets stored in our database for station/object N7AWM. If no packets are shown the sender has not sent any weather packets the latest 10 day(s).
| Time | Temp. | Humidity | Pressure | Rain* | Wind** | Luminosity | Snow |
|---|---|---|---|---|---|---|---|
| 1777854489 | 27.22° C | 28% | 1005.4 hPa | 0 mm | - | - | - |
| 1777853650 | 27.22° C | 28% | 1005.6 hPa | 0 mm | - | - | - |
| 1777852810 | 27.78° C | 27% | 1005.8 hPa | 0 mm | - | - | - |
| 1777851970 | 27.78° C | 28% | 1005.8 hPa | 0 mm | - | - | - |
| 1777851130 | 27.22° C | 28% | 1006 hPa | 0 mm | - | - | - |
| 1777850290 | 27.78° C | 27% | 1006.2 hPa | 0 mm | - | - | - |
| 1777849450 | 26.67° C | 28% | 1006.3 hPa | 0 mm | - | - | - |
| 1777848610 | 26.67° C | 29% | 1006.6 hPa | 0 mm | - | - | - |
| 1777847770 | 27.22° C | 29% | 1006.9 hPa | 0 mm | - | - | - |
| 1777846930 | 27.78° C | 26% | 1007.1 hPa | 0 mm | - | - | - |
| 1777846090 | 27.22° C | 26% | 1007.3 hPa | 0 mm | - | - | - |
| 1777845250 | 27.22° C | 26% | 1007.5 hPa | 0 mm | - | - | - |
| 1777844410 | 26.67° C | 26% | 1007.7 hPa | 0 mm | - | - | - |
| 1777843570 | 26.67° C | 27% | 1007.9 hPa | 0 mm | - | - | - |
| 1777842730 | 26.67° C | 26% | 1008.2 hPa | 0 mm | - | - | - |
| 1777841890 | 26.67° C | 28% | 1008.4 hPa | 0 mm | - | - | - |
| 1777841051 | 26.67° C | 27% | 1008.7 hPa | 0 mm | - | - | - |
| 1777840211 | 26.11° C | 28% | 1008.9 hPa | 0 mm | - | - | - |
| 1777839371 | 25.56° C | 29% | 1009.1 hPa | 0 mm | - | - | - |
| 1777838531 | 25.56° C | 30% | 1009.3 hPa | 0 mm | - | - | - |
| 1777837691 | 25.56° C | 32% | 1009.5 hPa | 0 mm | - | - | - |
| 1777836851 | 25° C | 30% | 1009.7 hPa | 0 mm | - | - | - |
| 1777836011 | 25° C | 31% | 1009.8 hPa | 0 mm | - | - | - |
| 1777835171 | 24.44° C | 31% | 1010 hPa | 0 mm | - | - | - |
| 1777834331 | 24.44° C | 33% | 1010.1 hPa | 0 mm | - | - | - |
* Rain latest hour (hover to see other rain measurements)
** Current wind speed in m/s (hover to see current wind gust speed)